This demonstration page uses our WeatherBlox Daily Observations layout. Learn more.

Left ArrowRight Arrow

39.08367, -84.50855

Hourly Observations for October 1, 2018

Temp ( °F °C ) Dew Point ( °F °C ) Humidity (%) Winds ( mph kmh ) Pressure ( in mb ) Visibility ( mi km ) Precip ( " mm )
12:10 am 00:10 Clear with Mist and Fog 60 15.6 60 15.6 100 100 N N/A 30.24 1024 3 4 N/A
12:17 am 00:17 Clear 61 16.1 61 16.1 100 100 N N/A 30.24 1024 7 11 N/A
12:53 am 00:53 Clear with Mist and Fog 60 15.6 60 15.6 100 100 N N/A 30.22 1023 6 10 N/A
1:07 am 01:07 Clear with Mist and Fog 60 15.6 60 15.6 100 100 N N/A 30.24 1024 2 3 N/A
1:17 am 01:17 Clear with Mist and Fog 59 15 59 15 100 100 N N/A 30.21 1023 1 1 N/A
1:24 am 01:24 Clear with Mist and Fog 59 15 59 15 100 100 N N/A 30.21 1023 1 2 N/A
1:39 am 01:39 Clear with Mist and Fog 59 15 59 15 100 100 N N/A 30.21 1023 2 3 N/A
1:48 am 01:48 Clear with Mist and Fog 57 14 57 14 100 100 N N/A 30.21 1023 1 1 N/A
1:53 am 01:53 Clear with Fog 58 14.4 58 14.4 100 100 N N/A 30.22 1023 1 1 N/A
2:04 am 02:04 Mostly Clear with Mist and Fog 59 15 59 15 100 100 N N/A 30.24 1024 2 3 N/A
2:09 am 02:09 Mostly Cloudy with Mist and Fog 59 15 59 15 100 100 N N/A 30.24 1024 1 2 N/A
2:17 am 02:17 Mostly Cloudy with Fog 58 14.4 58 14.4 100 100 N N/A 30.24 1024 1 1 N/A
2:24 am 02:24 Mostly Cloudy with Fog 59 15 59 15 100 100 N N/A 30.24 1024 0 0 N/A
2:53 am 02:53 Mostly Cloudy with Fog 59 15 59 15 100 100 N N/A 30.22 1023 0 0 N/A
3:53 am 03:53 Mostly Cloudy with Fog 59 15 59 15 100 100 N N/A 30.22 1023 0 0 N/A
4:53 am 04:53 Mostly Cloudy with Fog 59 15 59 15 100 100 N N/A 30.22 1024 0 0 N/A
5:53 am 05:53 Mostly Cloudy with Fog 59 15 59 15 100 100 N N/A 30.24 1024 0 0 N/A
6:53 am 06:53 Mostly Cloudy with Fog 59 15 59 15 100 100 N N/A 30.25 1024 0 0 N/A
7:53 am 07:53 Mostly Cloudy with Fog 59 15 59 15 100 100 N N/A 30.26 1025 5 8 N/A
8:53 am 08:53 Mostly Cloudy with Fog 60 15.6 60 15.6 100 100 N N/A 30.27 1025 0 0 N/A
9:23 am 09:23 Mostly Cloudy with Patchy Fog 61 16.1 61 16.1 100 100 N N/A 30.27 1025 1 2 N/A
9:39 am 09:39 Partly Cloudy with Mist and Fog 62 16.7 62 16.7 100 100 N N/A 30.30 1026 2 3 N/A
9:53 am 09:53 Partly Cloudy with Mist and Fog 63 17.2 63 17.2 100 100 N N/A 30.28 1025 6 10 N/A
10:13 am 10:13 Sunny 65 18.3 65 18.3 100 100 N N/A 30.27 1025 10 16 N/A
10:53 am 10:53 Sunny 71 21.7 67 19.4 87 87 N N/A 30.27 1025 10 16 N/A
11:53 am 11:53 Partly Cloudy 77 25 69 20.6 77 77 SSW 3 6 30.27 1025 10 16 N/A
12:53 pm 12:53 Mostly Sunny 81 27.2 69 20.6 67 67 S 5 7 30.24 1024 10 16 N/A
1:53 pm 13:53 Mostly Cloudy 82 27.8 69 20.6 65 65 SSW 10 17 30.22 1023 10 16 N/A
2:53 pm 14:53 Mostly Sunny 84 28.9 68 20 59 59 SSW 13 20 30.19 1022 10 16 N/A
3:53 pm 15:53 Mostly Sunny 85 29.4 69 20.6 59 59 SSW 8 13 30.17 1022 10 16 N/A
4:53 pm 16:53 Partly Cloudy 83 28.3 70 21.1 65 65 S 5 7 30.15 1021 10 16 N/A
5:53 pm 17:53 Mostly Sunny 80 26.7 71 21.7 74 74 S 5 7 30.14 1021 10 16 N/A
6:53 pm 18:53 Mostly Sunny 78 25.6 71 21.7 79 79 N N/A 30.14 1021 10 16 N/A
7:53 pm 19:53 Mostly Clear with Light Rain 74 23.3 72 22.2 94 94 N N/A 30.14 1021 10 16 N/A
8:53 pm 20:53 Mostly Cloudy 73 22.8 71 21.7 94 94 VRB 5 7 30.14 1021 10 16 N/A
9:53 pm 21:53 Clear 70 21.1 70 21.1 100 100 N N/A 30.14 1021 7 11 N/A
10:53 pm 22:53 Clear 73 22.8 70 21.1 90 90 SSW 7 11 30.13 1020 10 16 N/A
11:53 pm 23:53 Clear 71 21.7 70 21.1 96 96 N N/A 30.14 1021 10 16 N/A

Powered by AerisWeather